Location: Newark
(40.7119°N, 74.0097°W)
Time: 15:50:17
(UTC+00:00)

ISS - Pass Details

Date: 29 June 2021
Orbit: 419 x 421 km, 51.6° (Epoch: 02 August)

Event Time Altitude Azimuth Distance (km) Brightness Sun altitude
Exits shadow 06:56:55 17° 117° (ESE) 1,135 -1.6 -20.5°
Drops below altitude 10° 06:58:40 10° 87° (E) 1,498 -0.6 -20.3°
Sets 07:01:12 0° 67° (ENE) 2,366 0.9 -20.1°
